Date String (YYYY-MM-DD hh:mm:ss) UTC,Instrument flags,Ambient pressure (hPa),Sample flow (lpm),Bypass flow (lpm),Sample temperature (°C),Ambient temperature (°C),ASC tube jacket temperature (°C),LED temperature (°C),Box temperature (°C),Sample RH (%),Span deviation,Mass concentration (μg/m³),Mass concentration (μg/m³),Mass concentration (μg/m³)
DateTimeUTC,F1_M11,P_M11,Q1_M11,Q2_M11,T1_M11,T2_M11,T3_M11,T4_M11,T5_M11,U1_M11,ZSPAN_M11,X2_M11,X0_M11,X1_M11
2021-12-12 08:00:00,,0819.9,5.00,0.00,22.3,21.7,00.0,31.3,24.0,08.8,0000.0,0002.05,0004.72,0001.58
2021-12-12 08:01:00,,0819.8,4.99,0.00,22.3,21.6,00.0,31.3,24.0,08.7,0000.0,0002.06,0004.71,0001.61
2021-12-12 08:02:00,,0819.9,5.01,0.00,22.2,21.6,00.0,31.3,23.9,09.0,0000.0,0002.08,0004.57,0001.63
2021-12-12 08:03:00,,0819.6,4.98,0.00,22.3,21.6,00.0,31.3,24.0,09.1,0000.0,0002.15,0004.77,0001.69
2021-12-12 08:04:00,,0819.9,5.01,0.00,22.2,21.6,00.0,31.3,23.9,08.7,0000.0,0002.17,0005.11,0001.72
2021-12-12 08:05:00,,0819.7,5.00,0.00,22.2,21.6,00.0,31.3,23.9,08.5,0000.0,0002.16,0005.82,0001.72
2021-12-12 08:06:00,,0819.8,4.99,0.00,22.2,21.6,00.0,31.3,23.9,08.2,0000.0,0002.10,0005.71,0001.68
2021-12-12 08:07:00,,0819.9,5.00,0.00,22.2,21.6,00.0,31.3,23.9,08.5,0000.0,0002.10,0005.64,0001.70
2021-12-12 08:08:00,,0819.9,5.01,0.00,22.2,21.6,00.0,31.3,23.9,08.8,0000.0,0002.13,0005.72,0001.73
2021-12-12 08:09:00,,0819.9,4.99,0.00,22.2,21.6,00.0,31.3,23.9,08.7,0000.0,0002.14,0006.08,0001.75
2021-12-12 08:10:00,,0819.9,5.00,0.00,22.2,21.6,00.0,31.3,23.9,08.6,0000.0,0002.25,0007.07,0001.78
2021-12-12 08:11:00,,0819.9,5.02,0.00,22.2,21.6,00.0,31.3,23.9,08.8,0000.0,0002.39,0007.01,0001.83
2021-12-12 08:12:00,,0819.9,5.00,0.00,22.2,21.6,00.0,31.2,24.0,08.9,0000.0,0002.50,0007.24,0001.87
2021-12-12 08:13:00,,0819.9,5.00,0.00,22.2,21.6,00.0,31.2,24.0,09.0,0000.0,0002.56,0007.32,0001.92
2021-12-12 08:14:00,,0819.9,4.99,0.00,22.2,21.6,00.0,31.2,24.0,09.1,0000.0,0002.55,0007.18,0001.92
2021-12-12 08:15:00,,0819.8,4.99,0.00,22.2,21.6,00.0,31.3,24.0,09.0,0000.0,0002.59,0007.34,0001.95
2021-12-12 08:16:00,,0819.9,5.00,0.00,22.2,21.6,00.0,31.2,24.0,09.1,0000.0,0002.72,0007.06,0001.99
2021-12-12 08:17:00,,0819.9,5.01,0.00,22.2,21.6,00.0,31.2,24.0,09.1,0000.0,0002.87,0007.59,0002.06
2021-12-12 08:18:00,,0819.9,5.01,0.00,22.2,21.6,00.0,31.2,24.0,09.2,0000.0,0002.87,0007.68,0002.06
2021-12-12 08:19:00,,0819.8,4.99,0.00,22.2,21.6,00.0,31.2,23.9,09.2,0000.0,0002.82,0007.65,0002.03
2021-12-12 08:20:00,,0819.9,5.00,0.00,22.2,21.6,00.0,31.2,23.9,09.2,0000.0,0002.84,0007.52,0002.02
2021-12-12 08:21:00,,0819.8,4.99,0.00,22.2,21.6,00.0,31.2,23.9,08.6,0000.0,0002.84,0007.04,0002.06
2021-12-12 08:22:00,,0819.8,5.01,0.00,22.2,21.6,00.0,31.2,24.0,08.4,0000.0,0002.90,0007.31,0002.16
2021-12-12 08:23:00,,0819.8,4.98,0.00,22.2,21.6,00.0,31.2,23.9,08.2,0000.0,0003.05,0007.53,0002.29
2021-12-12 08:24:00,,0819.7,5.01,0.00,22.2,21.6,00.0,31.2,23.9,08.3,0000.0,0003.20,0008.47,0002.40
2021-12-12 08:25:00,,0819.7,4.99,0.00,22.2,21.6,00.0,31.2,24.0,08.3,0000.0,0003.34,0009.30,0002.53
2021-12-12 08:26:00,,0819.8,5.00,0.00,22.2,21.6,00.0,31.2,24.0,08.5,0000.0,0003.44,0009.94,0002.60
2021-12-12 08:27:00,,0819.8,5.01,0.00,22.3,21.7,00.0,31.2,24.1,08.6,0000.0,0003.43,0010.22,0002.63
2021-12-12 08:28:00,,0819.9,5.00,0.00,22.3,21.7,00.0,31.2,24.1,08.6,0000.0,0003.48,0010.21,0002.72
2021-12-12 08:29:00,,0819.9,5.00,0.00,22.3,21.7,00.0,31.2,24.0,08.7,0000.0,0003.49,0010.14,0002.72
2021-12-12 08:30:00,,0819.9,5.01,0.00,22.3,21.7,00.0,31.2,24.0,08.5,0000.0,0003.52,0010.15,0002.76
2021-12-12 08:31:00,,0820.0,4.99,0.00,22.3,21.7,00.0,31.2,24.0,08.8,0000.0,0003.56,0010.76,0002.81
2021-12-12 08:32:00,,0819.9,4.99,0.00,22.3,21.7,00.0,31.3,24.0,09.0,0000.0,0003.56,0010.64,0002.80
2021-12-12 08:33:00,,0819.9,5.01,0.00,22.2,21.6,00.0,31.3,23.9,09.2,0000.0,0003.53,0011.04,0002.71
2021-12-12 08:34:00,,0819.9,5.01,0.00,22.2,21.5,00.0,31.2,23.8,09.2,0000.0,0003.43,0011.03,0002.60
2021-12-12 08:35:00,,0819.9,4.99,0.00,22.2,21.5,00.0,31.2,23.8,09.2,0000.0,0003.34,0010.42,0002.51
2021-12-12 08:36:00,,0819.9,4.99,0.00,22.1,21.5,00.0,31.2,23.8,08.9,0000.0,0003.28,0009.48,0002.46
2021-12-12 08:37:00,,0819.9,5.02,0.00,22.1,21.4,00.0,31.2,23.7,08.7,0000.0,0003.28,0009.03,0002.47
2021-12-12 08:38:00,,0819.9,5.00,0.00,22.1,21.4,00.0,31.2,23.7,08.5,0000.0,0003.36,0008.58,0002.57
2021-12-12 08:39:00,,0820.0,5.00,0.00,22.0,21.3,00.0,31.2,23.7,08.5,0000.0,0003.43,0008.93,0002.64
2021-12-12 08:40:00,,0819.9,4.99,0.00,22.0,21.3,00.0,31.2,23.7,08.5,0000.0,0003.55,0009.80,0002.76
2021-12-12 08:41:00,,0819.9,5.01,0.00,22.0,21.2,00.0,31.1,23.6,08.8,0000.0,0003.62,0010.98,0002.82
2021-12-12 08:42:00,,0819.9,4.99,0.00,22.0,21.2,00.0,31.1,23.6,09.0,0000.0,0003.60,0010.51,0002.78
2021-12-12 08:43:00,,0819.9,5.01,0.00,21.9,21.2,00.0,31.1,23.6,09.1,0000.0,0003.57,0010.20,0002.74
2021-12-12 08:44:00,,0819.9,5.00,0.00,21.9,21.1,00.0,31.1,23.5,09.1,0000.0,0003.54,0009.34,0002.73
2021-12-12 08:45:00,,0819.8,4.99,0.00,21.9,21.1,00.0,31.1,23.5,09.0,0000.0,0003.55,0009.18,0002.73
2021-12-12 08:46:00,,0819.7,4.99,0.00,21.9,21.1,00.0,31.0,23.5,08.9,0000.0,0003.55,0009.29,0002.76
2021-12-12 08:47:00,,0819.8,5.00,0.00,21.9,21.1,00.0,31.0,23.5,08.5,0000.0,0003.49,0009.26,0002.67
2021-12-12 08:48:00,,0819.8,5.00,0.00,21.8,21.1,00.0,31.0,23.4,09.1,0000.0,0003.36,0008.96,0002.53
2021-12-12 08:49:00,,0819.8,4.99,0.00,21.8,21.2,00.0,31.0,23.5,09.2,0000.0,0003.25,0008.75,0002.38
2021-12-12 08:50:00,,0819.9,4.99,0.00,21.9,21.9,00.0,31.0,23.8,08.6,0000.0,0003.03,0008.07,0002.17
2021-12-12 08:51:00,,0819.9,5.00,0.00,22.1,22.7,00.0,31.1,24.1,08.8,0000.0,0002.70,0007.33,0001.96
2021-12-12 08:52:00,,0819.8,5.00,0.00,22.2,22.8,00.0,31.1,24.2,08.8,0000.0,0002.54,0005.05,0001.90
2021-12-12 08:53:00,,0819.9,4.99,0.00,22.3,22.6,00.0,31.1,24.2,08.5,0000.0,0002.76,0006.06,0002.02
2021-12-12 08:54:00,,0819.7,5.01,0.00,22.3,22.4,00.0,31.1,24.1,08.5,0000.0,0002.99,0007.97,0002.19
2021-12-12 08:55:00,,0819.7,5.01,0.00,22.3,22.3,00.0,31.2,24.1,08.4,0000.0,0003.10,0008.88,0002.27
2021-12-12 08:56:00,,0819.7,5.00,0.00,22.3,22.2,00.0,31.2,24.1,08.3,0000.0,0003.09,0008.88,0002.24
2021-12-12 08:57:00,,0819.6,5.00,0.00,22.3,22.1,00.0,31.2,24.1,08.2,0000.0,0002.93,0008.57,0002.10
2021-12-12 08:58:00,,0819.8,5.00,0.00,22.3,22.0,00.0,31.2,24.1,08.1,0000.0,0002.81,0008.44,0001.98
2021-12-12 08:59:00,,0819.9,5.01,0.00,22.3,22.0,00.0,31.2,24.1,08.2,0000.0,0002.78,0008.44,0001.94
